This demonstration page uses our WeatherBlox Daily Observations layout. Learn more.

Left ArrowRight Arrow

Hourly Observations for March 16, 2021

Temp ( °F °C ) Dew Point ( °F °C ) Humidity (%) Winds ( mph kmh ) Pressure ( in mb ) Visibility ( mi km ) Precip ( " mm )
12:51 am 00:51 Clear 56 13.3 18 -7.8 22 22 E 8 13 29.67 1005 10 16.0934 0 0
1:51 am 01:51 Clear 60 15.6 14 -10 16 16 S 9 15 29.64 1004 10 16.0934 0 0
2:51 am 02:51 Clear 60 15.6 13 -10.6 16 16 S 13 20 29.61 1003 10 16.0934 0 0
3:33 am 03:33 Clear 57 13.9 14 -10 18 18 S 10 17 29.63 1003 10 16.0934 0 0
3:51 am 03:51 Clear 53 11.7 18 -7.8 25 25 VRB 3 6 29.6 1003 10 16.0934 0 0
4:51 am 04:51 Clear 56 13.3 12 -11.1 17 17 SSW 14 22 29.59 1002 10 16.0934 0 0
5:51 am 05:51 Clear 55 12.8 11 -11.7 17 17 S 14 22 29.6 1002 10 16.0934 0 0
6:51 am 06:51 Sunny 48 8.9 21 -6.1 34 34 NW 13 20 29.66 1005 10 16.0934 0 0
7:51 am 07:51 Sunny 46 7.8 27 -2.8 47 47 NW 21 33 29.71 1006 10 16.0934 0 0
8:51 am 08:51 Cloudy with Light Rain 42 5.6 31 -0.6 65 65 NW 31 50 29.77 1008 10 16.0934 0.001 0.001
9:44 am 09:44 Cloudy with Light Rain 38 3.3 34 1.1 86 86 NNW 23 37 29.95 1014 10 16.0934 0.001 0.001
9:51 am 09:51 Cloudy with Light Rain 38 3.3 34 1.1 86 86 NNW 26 43 29.85 1011 10 16.0934 0.001 0.001
9:58 am 09:58 Cloudy with Light Rain 38 3.3 33 0.6 83 83 NNW 23 37 29.96 1014 10 16.0934 0.001 0.001
10:07 am 10:07 Cloudy 39 3.9 34 1.1 82 82 NNW 22 35 29.95 1014 10 16.0934 0.001 0.001
10:51 am 10:51 Cloudy 43 6.1 31 -0.6 63 63 WNW 24 39 29.85 1011 10 16.0934 0.001 0.001
11:51 am 11:51 Mostly Sunny 48 8.9 28 -2.2 46 46 NNW 20 31 29.84 1011 10 16.0934 0 0
12:51 pm 12:51 Cloudy 48 8.9 24 -4.4 39 39 NW 20 31 29.84 1011 10 16.0934 0 0
1:51 pm 13:51 Cloudy 48 8.9 26 -3.3 42 42 NW 20 31 29.84 1011 10 16.0934 0 0
2:51 pm 14:51 Mostly Cloudy 50 10 24 -4.4 36 36 WNW 25 41 29.84 1011 10 16.0934 0 0
3:51 pm 15:51 Partly Cloudy 48 8.9 25 -3.9 41 41 NW 24 39 29.88 1012 10 16.0934 0 0
4:51 pm 16:51 Sunny 49 9.4 25 -3.9 39 39 NW 22 35 29.88 1012 10 16.0934 0 0
5:51 pm 17:51 Sunny 48 8.9 24 -4.4 39 39 NW 20 31 29.9 1013 10 16.0934 0 0
6:51 pm 18:51 Clear 46 7.8 24 -4.4 42 42 NW 16 26 29.95 1014 10 16.0934 0 0
7:51 pm 19:51 Clear 44 6.7 25 -3.9 47 47 NW 8 13 30 1016 10 16.0934 0 0
8:51 pm 20:51 Clear 43 6.1 24 -4.4 47 47 NW 7 11 30.03 1017 10 16.0934 0 0
9:51 pm 21:51 Clear 40 4.4 24 -4.4 53 53 NW 6 9 30.07 1018 10 16.0934 0 0
10:51 pm 22:51 Clear 39 3.9 24 -4.4 55 55 S 3 6 30.07 1018 10 16.0934 0 0
11:51 pm 23:51 Clear 38 3.3 24 -4.4 57 57 WNW 3 6 30.06 1018 10 16.0934 0 0

Powered by AerisWeather